Location: George Washington National Forest Helicopter Landing Site
(38.6463°N, 79.0851°W)
Time: 15:49:33
(UTC-04:00)

Transit 2A Rocket - All Passes

Search period start: 24 August 2019 00:00
Search period end: 03 September 2019 00:00
Orbit: 590 x 913 km, 66.7° (Epoch: 24 August)

Date Brightness Start Highest point End Pass type
(mag) Time Alt. Az. Time Alt. Az. Time Alt. Az.
24 Aug - 04:38:51 10° NNW 04:43:11 43° ENE 04:47:16 10° SE visible
24 Aug - 06:22:36 10° WNW 06:25:15 16° WSW 06:27:51 10° SW daylight
24 Aug - 19:10:36 10° S 19:16:14 51° ESE 19:21:30 10° NE daylight
24 Aug - 20:54:25 10° WSW 20:59:03 25° NW 21:03:25 10° N visible
25 Aug - 03:56:45 10° N 04:00:28 24° NE 04:04:01 10° ESE visible
25 Aug - 05:39:07 10° NW 05:43:01 31° WSW 05:46:46 10° S visible
25 Aug - 18:28:52 10° SSE 18:33:51 30° ESE 18:38:33 10° NE daylight
25 Aug - 20:10:57 10° SW 20:16:20 40° NW 20:21:20 10° NNE daylight
26 Aug - 03:15:07 10° N 03:17:37 14° NE 03:20:03 10° E visible
26 Aug - 04:56:15 10° NW 05:00:40 62° WSW 05:04:52 10° SSE visible
26 Aug - 17:47:58 10° SE 17:51:34 17° ESE 17:55:00 10° ENE daylight
26 Aug - 19:27:56 10° SW 19:33:43 67° WNW 19:39:04 10° NNE daylight
26 Aug - 21:15:24 10° WNW 21:17:10 11° NW 21:18:55 10° NNW visible
27 Aug - 04:13:42 10° NNW 04:18:11 66° ENE 04:22:26 10° SE visible
27 Aug - 18:45:23 10° SSW 18:51:12 73° ESE 18:56:34 10° NNE daylight
27 Aug - 20:30:26 10° W 20:34:14 18° NW 20:37:52 10° N visible
28 Aug - 03:31:26 10° NNW 03:35:34 35° NE 03:39:31 10° ESE visible
28 Aug - 05:14:37 10° WNW 05:17:48 20° WSW 05:20:54 10° SSW visible
28 Aug - 18:03:19 10° S 18:08:45 42° ESE 18:13:50 10° NE daylight
28 Aug - 19:46:33 10° WSW 19:51:26 29° NW 19:56:01 10° N daylight
29 Aug - 02:49:28 10° N 02:52:49 20° NE 02:56:02 10° E visible
29 Aug - 04:31:24 10° NW 04:35:31 38° WSW 04:39:29 10° S visible
29 Aug - 17:21:50 10° SSE 17:26:24 24° ESE 17:30:44 10° NE daylight
29 Aug - 19:03:14 10° SW 19:08:46 47° WNW 19:13:53 10° NNE daylight
30 Aug - 02:08:10 10° NNE 02:09:55 12° NE 02:11:38 10° ENE visible
30 Aug - 03:48:40 10° NNW 03:53:07 79° WSW 03:57:23 10° SSE visible
30 Aug - 16:41:25 10° SE 16:44:08 14° ESE 16:46:46 10° ENE daylight
30 Aug - 18:20:23 10° SSW 18:26:11 80° WNW 18:31:32 10° NNE daylight
30 Aug - 20:06:53 10° WNW 20:09:29 13° NW 20:12:00 10° NNW daylight
31 Aug - 03:06:13 10° NNW 03:10:36 52° ENE 03:14:47 10° SE visible
31 Aug - 04:50:41 10° W 04:52:32 13° WSW 04:54:22 10° SW night (unlit)
31 Aug - 17:37:59 10° SSW 17:43:42 61° ESE 17:48:58 10° NE daylight
31 Aug - 19:22:24 10° W 19:26:35 21° NW 19:30:34 10° N daylight
01 Sep - 02:24:03 10° N 02:27:57 28° NE 02:31:40 10° ESE visible
01 Sep - 04:06:45 10° NW 04:10:19 25° WSW 04:13:48 10° SSW night (unlit)
01 Sep - 16:56:06 10° S 17:01:17 35° ESE 17:06:07 10° NE daylight
01 Sep - 18:38:44 10° WSW 18:43:50 34° NW 18:48:36 10° N daylight
02 Sep - 01:42:14 10° N 01:45:08 17° NE 01:47:57 10° E visible
02 Sep - 03:23:44 10° NW 03:28:00 49° WSW 03:32:07 10° S night (unlit)
02 Sep - 16:14:53 10° SSE 16:18:57 20° ESE 16:22:49 10° ENE daylight
02 Sep - 17:55:35 10° SW 18:01:12 56° WNW 18:06:24 10° NNE daylight
